GW3580 Weather Reports


Display with metric or nautical units.
time (UTC)temp
F
wind
direction
speed
MPH
gust
MPH
rain 1hr
in
rain 24hr
in
rain mn
in
humidity
%
barometer
mb
20260903121938 60 269 2.0 4.0 0.00 0.00 0.00 68 1013.5
20260903121433 61 268 1.0 1.0 0.00 0.00 0.00 68 1013.5
20260903120929 61 246 2.0 2.0 0.00 0.00 0.00 67 1013.5
20260903120427 61 248 1.0 1.0 0.00 0.00 0.00 67 1013.5
20260903115926 61 228 2.0 2.0 0.00 0.00 0.00 67 1013.6
20260903115420 61 255 1.0 1.0 0.00 0.00 0.00 67 1013.6
20260903114915 61 254 2.0 2.0 0.00 0.00 0.00 66 1013.5
20260903114411 61 232 1.0 2.0 0.00 0.00 0.00 66 1013.7
20260903113906 61 230 1.0 2.0 0.00 0.00 0.00 66 1013.6
20260903113402 62 243 2.0 2.0 0.00 0.00 0.00 65 1013.6
20260903112857 62 262 3.0 4.0 0.00 0.00 0.00 65 1013.7
20260903112353 62 117 2.0 4.0 0.00 0.00 0.00 66 1013.6
20260903111852 62 267 2.0 2.0 0.00 0.00 0.00 66 1013.8
20260903111351 62 248 3.0 4.0 0.00 0.00 0.00 66 1013.7
20260903110848 62 221 6.0 8.0 0.00 0.00 0.00 66 1013.8
20260903110343 62 264 4.0 5.0 0.00 0.00 0.00 67 1013.7
20260903105838 62 247 3.0 4.0 0.00 0.00 0.00 67 1013.7
20260903105333 62 9 3.0 4.0 0.00 0.00 0.00 68 1013.5
20260903104833 62 275 3.0 4.0 0.00 0.00 0.00 68 1013.8
20260903104327 62 244 3.0 4.0 0.00 0.00 0.00 69 1013.9
20260903103824 62 263 2.0 2.0 0.00 0.00 0.00 69 1013.7
20260903103320 62 253 2.0 2.0 0.00 0.00 0.00 69 1013.7
20260903102815 62 276 5.0 6.0 0.00 0.00 0.00 69 1013.8
20260903102310 62 257 2.0 2.0 0.00 0.00 0.00 69 1013.8
20260903101809 62 260 2.0 4.0 0.00 0.00 0.00 69 1013.7
20260903101304 62 263 1.0 2.0 0.00 0.00 0.00 68 1013.6
20260903100800 63 243 3.0 4.0 0.00 0.00 0.00 68 1013.9
20260903100254 63 195 2.0 2.0 0.00 0.00 0.00 67 1013.8
20260903095751 63 262 3.0 5.0 0.00 0.00 0.00 67 1013.8
20260903095246 63 238 2.0 2.0 0.00 0.00 0.00 67 1013.6
20260903094741 63 258 2.0 2.0 0.00 0.00 0.00 66 1013.6
20260903094236 64 253 4.0 5.0 0.00 0.00 0.00 65 1013.6
20260903093731 64 275 2.0 2.0 0.00 0.00 0.00 66 1013.9
20260903093227 64 119 1.0 1.0 0.00 0.00 0.00 65 1013.8
20260903092726 64 247 1.0 4.0 0.00 0.00 0.00 65 1013.7
20260903092221 64 276 3.0 4.0 0.00 0.00 0.00 65 1013.9
20260903091720 64 275 3.0 4.0 0.00 0.00 0.00 65 1013.8
20260903091215 64 41 2.0 2.0 0.00 0.00 0.00 64 1013.7
20260903090710 64 240 2.0 4.0 0.00 0.00 0.00 64 1013.7
20260903090209 64 266 3.0 4.0 0.00 0.00 0.00 64 1013.9
20260903085708 64 249 2.0 2.0 0.00 0.00 0.00 64 1014.2
20260903085203 64 276 2.0 2.0 0.00 0.00 0.00 63 1013.9
20260903084701 65 285 2.0 2.0 0.00 0.00 0.00 63 1014.0
20260903084155 65 274 1.0 2.0 0.00 0.00 0.00 63 1014.0
20260903083651 65 236 2.0 2.0 0.00 0.00 0.00 63 1014.0
20260903083145 65 237 1.0 2.0 0.00 0.00 0.00 63 1013.9
20260903082639 65 260 2.0 4.0 0.00 0.00 0.00 63 1014.1
20260903082136 65 282 1.0 2.0 0.00 0.00 0.00 63 1013.8
20260903081630 65 262 2.0 2.0 0.00 0.00 0.00 64 1014.1
20260903081126 65 235 3.0 5.0 0.00 0.00 0.00 64 1014.0
20260903080622 65 327 2.0 4.0 0.00 0.00 0.00 64 1013.9
20260903080120 65 240 3.0 4.0 0.00 0.00 0.00 64 1014.0
20260903075619 65 252 2.0 2.0 0.00 0.00 0.00 64 1013.8
20260903075114 65 276 2.0 2.0 0.00 0.00 0.00 64 1014.1
20260903074613 65 247 2.0 2.0 0.00 0.00 0.00 64 1013.9
20260903074108 65 262 1.0 1.0 0.00 0.00 0.00 64 1014.1
20260903073603 65 279 2.0 2.0 0.00 0.00 0.00 64 1014.0
20260903073059 65 258 1.0 1.0 0.00 0.00 0.00 64 1013.9
20260903072555 66 250 1.0 1.0 0.00 0.00 0.00 64 1014.0
20260903072051 66 262 2.0 2.0 0.00 0.00 0.00 63 1014.0
20260903071547 66 321 1.0 1.0 0.00 0.00 0.00 63 1013.8
20260903071047 66 13 0.0 0.0 0.00 0.00 0.00 62 1014.0
20260903070542 66 319 0.0 1.0 0.00 0.00 0.00 62 1013.8
20260903070038 66 247 3.0 4.0 0.00 0.00 0.00 63 1013.7
20260903065537 66 245 1.0 1.0 0.00 0.00 0.00 63 1013.8
20260903065036 66 280 1.0 1.0 0.00 0.00 0.00 61 1013.8
20260903064531 66 235 1.0 1.0 0.00 0.00 0.00 62 1013.8
20260903064027 66 354 0.0 0.0 0.00 0.00 0.00 61 1013.7
20260903063522 66 14 0.0 1.0 0.00 0.00 0.00 61 1013.8
20260903063017 66 42 0.0 0.0 0.00 0.00 0.00 61 1013.8
20260903062512 66 106 0.0 0.0 0.00 0.00 0.00 60 1014.0
20260903062008 67 56 0.0 0.0 0.00 0.00 0.00 60 1013.7
20260903061502 67 240 1.0 1.0 0.00 0.00 0.00 59 1013.7
20260903060957 67 290 2.0 2.0 0.00 0.00 0.00 59 1013.7
20260903060452 67 57 0.0 0.0 0.00 0.00 0.00 59 1013.9
20260903055950 68 32 0.0 0.0 0.00 0.00 0.00 58 1013.9
20260903055448 68 245 1.0 1.0 0.00 0.00 0.00 58 1013.9
20260903054943 68 232 1.0 1.0 0.00 0.00 0.00 58 1013.8
20260903054437 68 244 0.0 1.0 0.00 0.00 0.00 57 1013.9
20260903053933 68 254 2.0 4.0 0.00 0.00 0.00 57 1013.9
20260903053433 68 263 2.0 2.0 0.00 0.00 0.00 57 1013.9
20260903052930 68 254 1.0 1.0 0.00 0.00 0.00 57 1014.0
20260903052425 69 261 2.0 2.0 0.00 0.00 0.00 57 1013.8
20260903051921 69 252 1.0 1.0 0.00 0.00 0.00 57 1014.0
20260903051416 69 299 1.0 2.0 0.00 0.00 0.00 57 1014.0
20260903050911 69 22 0.0 1.0 0.00 0.00 0.00 56 1014.0
20260903050410 69 250 2.0 2.0 0.00 0.00 0.00 56 1014.1
20260903045905 69 25 0.0 0.0 0.00 0.00 0.00 56 1014.2
20260903045401 69 21 0.0 0.0 0.00 0.00 0.00 56 1014.1
20260903044858 70 311 0.0 1.0 0.00 0.00 0.00 54 1014.0
20260903044357 70 325 0.0 1.0 0.00 0.00 0.00 53 1014.0
20260903043855 70 198 1.0 1.0 0.00 0.00 0.00 53 1013.9
20260903043349 70 267 0.0 0.0 0.00 0.00 0.00 53 1013.8
20260903042847 71 41 1.0 1.0 0.00 0.00 0.00 52 1013.7
20260903042343 71 234 0.0 1.0 0.00 0.00 0.00 50 1013.9
20260903041839 72 279 1.0 1.0 0.00 0.00 0.00 49 1013.6
20260903041335 72 94 0.0 1.0 0.00 0.00 0.00 47 1013.6
20260903040831 72 238 2.0 2.0 0.00 0.00 0.00 45 1013.7
20260903040329 71 130 0.0 0.0 0.00 0.00 0.00 45 1013.5
20260903035826 71 100 0.0 0.0 0.00 0.00 0.00 45 1013.6
20260903035321 71 150 0.0 0.0 0.00 0.00 0.00 45 1013.7
20260903034816 71 150 0.0 0.0 0.00 0.00 0.00 46 1013.4
20260903034311 72 150 0.0 0.0 0.00 0.00 0.00 47 1013.4
20260903033806 72 151 0.0 1.0 0.00 0.00 0.00 48 1013.3
20260903033301 73 151 0.0 0.0 0.00 0.00 0.00 47 1013.2
20260903032755 73 234 0.0 1.0 0.00 0.00 0.00 47 1013.2
20260903032252 73 253 1.0 1.0 0.00 0.00 0.00 47 1013.1
20260903031747 73 255 0.0 0.0 0.00 0.00 0.00 46 1013.1
20260903031246 73 73 0.0 0.0 0.00 0.00 0.00 46 1013.2
20260903030742 74 71 0.0 0.0 0.00 0.00 0.00 47 1013.2
20260903030238 74 59 0.0 1.0 0.00 0.00 0.00 46 1012.9
20260903025728 75 44 0.0 0.0 0.00 0.00 0.00 47 1013.2
20260903025224 75 252 0.0 0.0 0.00 0.00 0.00 46 1012.9
20260903024724 75 279 0.0 1.0 0.00 0.00 0.00 46 1012.8
20260903024222 75 2 0.0 0.0 0.00 0.00 0.00 45 1012.8
20260903023718 76 1 0.0 0.0 0.00 0.00 0.00 44 1012.8
20260903023214 76 2 0.0 0.0 0.00 0.00 0.00 41 1012.9
20260903022714 77 1 0.0 1.0 0.00 0.00 0.00 39 1012.9
20260903022213 78 348 0.0 0.0 0.00 0.00 0.00 36 1012.9
20260903021713 79 283 2.0 5.0 0.00 0.00 0.00 34 1012.9
20260903021208 79 254 3.0 4.0 0.00 0.00 0.00 33 1012.9
20260903020702 79 260 4.0 6.0 0.00 0.00 0.00 33 1013.0
20260903020157 79 282 3.0 4.0 0.00 0.00 0.00 33 1012.9
20260903015652 80 258 4.0 6.0 0.00 0.00 0.00 34 1012.9
20260903015148 80 255 3.0 4.0 0.00 0.00 0.00 33 1013.0
20260903014642 80 238 3.0 4.0 0.00 0.00 0.00 33 1013.0
20260903014142 81 269 3.0 4.0 0.00 0.00 0.00 32 1012.9
20260903013637 81 262 4.0 5.0 0.00 0.00 0.00 30 1013.0
20260903013136 82 240 3.0 4.0 0.00 0.00 0.00 32 1013.0
20260903012635 82 264 2.0 4.0 0.00 0.00 0.00 32 1013.0
20260903012135 82 281 2.0 4.0 0.00 0.00 0.00 31 1013.2
20260903011634 82 278 1.0 1.0 0.00 0.00 0.00 29 1013.1
20260903011129 82 301 2.0 4.0 0.00 0.00 0.00 29 1013.1
20260903010625 82 248 2.0 2.0 0.00 0.00 0.00 30 1013.2
20260903010123 82 247 4.0 5.0 0.00 0.00 0.00 29 1013.1
20260903005618 83 273 3.0 4.0 0.00 0.00 0.00 28 1013.3
20260903005114 82 237 2.0 2.0 0.00 0.00 0.00 29 1013.2
20260903004613 83 250 4.0 5.0 0.00 0.00 0.00 29 1013.3
20260903004108 83 271 3.0 5.0 0.00 0.00 0.00 30 1013.2
20260903003604 84 276 2.0 2.0 0.00 0.00 0.00 28 1013.5
20260903003059 84 252 2.0 2.0 0.00 0.00 0.00 27 1013.3
20260903002554 83 258 1.0 1.0 0.00 0.00 0.00 27 1013.3
20260903002048 83 264 3.0 4.0 0.00 0.00 0.00 27 1013.3
20260903001543 83 265 5.0 6.0 0.00 0.00 0.00 27 1013.4
20260903001043 85 264 3.0 4.0 0.00 0.00 0.00 28 1013.4
20260903000539 85 39 0.0 1.0 0.00 0.00 0.00 24 1013.6
20260903000037 84 54 1.0 2.0 0.00 0.00 0.00 23 1013.7
20260902235532 83 288 1.0 1.0 0.00 0.00 0.00 24 1013.6
20260902235027 84 249 5.0 6.0 0.00 0.00 0.00 22 1013.8
20260902234526 84 330 1.0 1.0 0.00 0.00 0.00 25 1013.6
20260902234025 84 248 2.0 4.0 0.00 0.00 0.00 26 1013.8
20260902233520 84 40 2.0 2.0 0.00 0.00 0.00 25 1013.8
20260902233014 85 279 6.0 7.0 0.00 0.00 0.00 24 1013.9
20260902232514 84 346 2.0 2.0 0.00 0.00 0.00 25 1013.6
20260902232003 83 242 3.0 4.0 0.00 0.00 0.00 25 1013.9
20260902231457 83 275 3.0 4.0 0.00 0.00 0.00 23 1014.0
20260902230952 83 280 2.0 2.0 0.00 0.00 0.00 26 1014.1
20260902230452 84 240 3.0 4.0 0.00 0.00 0.00 25 1013.9
20260902225951 84 240 2.0 2.0 0.00 0.00 0.00 25 1014.0
20260902225446 84 343 0.0 1.0 0.00 0.00 0.00 26 1014.1
20260902224945 83 265 2.0 2.0 0.00 0.00 0.00 24 1014.1
20260902224444 83 260 2.0 2.0 0.00 0.00 0.00 23 1014.4
20260902223942 82 286 2.0 2.0 0.00 0.00 0.00 23 1014.2
20260902223437 83 261 2.0 2.0 0.00 0.00 0.00 24 1014.3
20260902222936 83 241 1.0 2.0 0.00 0.00 0.00 26 1014.4
20260902222435 82 274 5.0 6.0 0.00 0.00 0.00 26 1014.5
20260902221934 83 276 2.0 2.0 0.00 0.00 0.00 28 1014.6
20260902221433 84 244 0.0 1.0 0.00 0.00 0.00 26 1014.6
20260902220929 84 18 1.0 2.0 0.00 0.00 0.00 29 1014.8
20260902220423 82 264 2.0 2.0 0.00 0.00 0.00 28 1014.8
20260902215918 81 255 3.0 5.0 0.00 0.00 0.00 30 1014.7
20260902215414 82 258 7.0 8.0 0.00 0.00 0.00 30 1014.9
20260902214910 82 73 2.0 2.0 0.00 0.00 0.00 29 1014.9
20260902214409 82 344 2.0 2.0 0.00 0.00 0.00 29 1015.1
20260902213903 81 278 3.0 5.0 0.00 0.00 0.00 31 1015.2
20260902213359 81 275 3.0 4.0 0.00 0.00 0.00 31 1015.0
20260902212858 80 267 3.0 4.0 0.00 0.00 0.00 31 1015.3
20260902212354 81 32 2.0 2.0 0.00 0.00 0.00 32 1015.3
20260902211851 81 273 4.0 5.0 0.00 0.00 0.00 32 1015.5
20260902211346 80 287 4.0 5.0 0.00 0.00 0.00 32 1015.4
20260902210841 79 168 1.0 1.0 0.00 0.00 0.00 35 1015.5
20260902210340 80 305 2.0 2.0 0.00 0.00 0.00 31 1015.4
20260902205839 80 247 2.0 2.0 0.00 0.00 0.00 33 1015.6
20260902205334 80 80 0.0 0.0 0.00 0.00 0.00 33 1015.6
20260902204830 80 39 5.0 5.0 0.00 0.00 0.00 33 1015.9
20260902204324 80 27 2.0 2.0 0.00 0.00 0.00 33 1015.7
20260902203820 79 73 0.0 0.0 0.00 0.00 0.00 33 1015.9
20260902203315 80 12 1.0 1.0 0.00 0.00 0.00 33 1016.0
20260902202814 80 28 1.0 1.0 0.00 0.00 0.00 34 1016.0
20260902202310 79 3 2.0 2.0 0.00 0.00 0.00 34 1016.0
20260902201807 79 322 2.0 2.0 0.00 0.00 0.00 34 1015.9
20260902201301 77 81 1.0 1.0 0.00 0.00 0.00 35 1016.0
20260902200756 77 252 3.0 4.0 0.00 0.00 0.00 38 1016.1
20260902200251 78 266 5.0 7.0 0.00 0.00 0.00 36 1016.1
20260902195747 78 45 1.0 1.0 0.00 0.00 0.00 37 1016.1
20260902195246 75 229 0.0 0.0 0.00 0.00 0.00 38 1016.0
20260902194740 76 239 3.0 4.0 0.00 0.00 0.00 37 1016.0
20260902194235 77 256 2.0 4.0 0.00 0.00 0.00 37 1016.2
20260902193731 78 315 2.0 4.0 0.00 0.00 0.00 38 1016.3
20260902193226 76 5 2.0 4.0 0.00 0.00 0.00 39 1016.5
20260902192724 76 343 1.0 1.0 0.00 0.00 0.00 39 1016.4
20260902192219 75 230 2.0 2.0 0.00 0.00 0.00 41 1016.1
20260902191719 75 48 0.0 1.0 0.00 0.00 0.00 39 1016.7
20260902191213 75 213 2.0 2.0 0.00 0.00 0.00 41 1016.5
20260902190709 74 56 0.0 1.0 0.00 0.00 0.00 41 1016.7
20260902190209 73 272 2.0 2.0 0.00 0.00 0.00 42 1016.6
20260902185704 73 185 1.0 1.0 0.00 0.00 0.00 43 1016.7
20260902185202 73 254 3.0 4.0 0.00 0.00 0.00 43 1016.8
20260902184655 73 252 3.0 5.0 0.00 0.00 0.00 44 1016.9
20260902184151 74 51 0.0 1.0 0.00 0.00 0.00 43 1016.8
20260902183647 73 228 1.0 1.0 0.00 0.00 0.00 44 1016.9
20260902183143 72 43 0.0 0.0 0.00 0.00 0.00 45 1016.9
20260902182639 71 72 1.0 1.0 0.00 0.00 0.00 47 1017.1
20260902182135 71 13 2.0 4.0 0.00 0.00 0.00 47 1017.0
20260902181631 71 228 2.0 5.0 0.00 0.00 0.00 47 1017.0
20260902181130 70 332 0.0 1.0 0.00 0.00 0.00 48 1017.1
20260902180624 70 249 2.0 4.0 0.00 0.00 0.00 49 1017.0
20260902180121 70 246 2.0 4.0 0.00 0.00 0.00 49 1017.4
20260902175620 70 252 2.0 2.0 0.00 0.00 0.00 48 1017.2
20260902175116 71 245 3.0 4.0 0.00 0.00 0.00 48 1017.2
20260902174612 70 48 1.0 1.0 0.00 0.00 0.00 45 1017.1
20260902174107 69 49 2.0 2.0 0.00 0.00 0.00 47 1017.4
20260902173602 68 291 1.0 1.0 0.00 0.00 0.00 48 1017.5
20260902173057 68 284 0.0 0.0 0.00 0.00 0.00 49 1017.3
20260902172551 68 310 2.0 4.0 0.00 0.00 0.00 50 1017.2
20260902172046 68 105 1.0 1.0 0.00 0.00 0.00 51 1017.2
20260902171542 66 80 1.0 1.0 0.00 0.00 0.00 55 1017.4
20260902171037 67 244 2.0 2.0 0.00 0.00 0.00 56 1017.4
20260902170532 68 93 0.0 1.0 0.00 0.00 0.00 53 1017.3
20260902170028 68 261 1.0 1.0 0.00 0.00 0.00 54 1017.2
20260902165527 67 103 0.0 1.0 0.00 0.00 0.00 55 1017.2
20260902165022 66 13 2.0 2.0 0.00 0.00 0.00 56 1017.2
20260902164517 66 107 1.0 1.0 0.00 0.00 0.00 58 1017.2
20260902164016 66 47 2.0 2.0 0.00 0.00 0.00 57 1017.2
20260902163512 66 76 0.0 1.0 0.00 0.00 0.00 58 1017.2
20260902163010 66 48 0.0 0.0 0.00 0.00 0.00 57 1017.3
20260902162510 66 50 0.0 0.0 0.00 0.00 0.00 58 1017.1
20260902162005 65 98 0.0 0.0 0.00 0.00 0.00 60 1017.2
20260902161500 65 60 2.0 2.0 0.00 0.00 0.00 59 1017.2
20260902160956 65 344 0.0 1.0 0.00 0.00 0.00 59 1017.2
20260902160451 64 41 0.0 0.0 0.00 0.00 0.00 61 1017.4
20260902155949 62 306 1.0 1.0 0.00 0.00 0.00 63 1017.6
20260902155445 63 248 3.0 4.0 0.00 0.00 0.00 63 1017.7
20260902154938 63 48 0.0 0.0 0.00 0.00 0.00 63 1017.6
20260902154434 63 41 1.0 1.0 0.00 0.00 0.00 63 1017.6
20260902153933 63 45 0.0 0.0 0.00 0.00 0.00 64 1017.6
20260902153432 62 52 0.0 1.0 0.00 0.00 0.00 63 1017.4
20260902152928 62 51 1.0 1.0 0.00 0.00 0.00 63 1017.4
20260902152424 62 222 1.0 1.0 0.00 0.00 0.00 65 1017.2
20260902151919 62 50 0.0 0.0 0.00 0.00 0.00 66 1017.2
20260902151415 61 220 1.0 1.0 0.00 0.00 0.00 68 1017.2
20260902150909 60 319 2.0 2.0 0.00 0.00 0.00 68 1016.9
20260902150405 60 295 1.0 1.0 0.00 0.00 0.00 68 1017.1
20260902145904 60 279 1.0 1.0 0.00 0.00 0.00 67 1016.9
20260902145400 60 313 0.0 0.0 0.00 0.00 0.00 66 1017.0
20260902144855 61 312 1.0 1.0 0.00 0.00 0.00 65 1017.0
20260902144351 60 37 0.0 0.0 0.00 0.00 0.00 66 1016.9
20260902143851 59 37 0.0 0.0 0.00 0.00 0.00 69 1016.6
20260902143346 59 37 0.0 0.0 0.00 0.00 0.00 70 1016.5
20260902142842 58 36 1.0 1.0 0.00 0.00 0.00 72 1016.5
20260902142337 57 9 0.0 0.0 0.00 0.00 0.00 73 1016.4
20260902141832 57 10 0.0 0.0 0.00 0.00 0.00 74 1016.4
20260902141328 57 10 0.0 0.0 0.00 0.00 0.00 74 1016.4
20260902140827 56 9 0.0 0.0 0.00 0.00 0.00 75 1016.3
20260902140323 56 9 0.0 0.0 0.00 0.00 0.00 75 1016.1
20260902135822 56 9 0.0 0.0 0.00 0.00 0.00 77 1016.2
20260902135318 56 10 0.0 0.0 0.00 0.00 0.00 77 1016.2
20260902134817 56 9 0.0 0.0 0.00 0.00 0.00 77 1016.0
20260902134313 56 6 0.0 0.0 0.00 0.00 0.00 77 1016.1
20260902133808 56 3 0.0 0.0 0.00 0.00 0.00 77 1016.1
20260902133307 56 3 0.0 0.0 0.00 0.00 0.00 76 1015.9
20260902132803 56 294 0.0 0.0 0.00 0.00 0.00 76 1015.9
20260902132258 56 302 0.0 0.0 0.00 0.00 0.00 76 1015.8
20260902131753 56 302 0.0 1.0 0.00 0.00 0.00 76 1015.5
20260902131250 56 309 0.0 0.0 0.00 0.00 0.00 76 1015.7
20260902130749 56 288 0.0 0.0 0.00 0.00 0.00 76 1015.6
20260902130245 56 337 0.0 1.0 0.00 0.00 0.00 76 1015.5
20260902125740 56 323 0.0 0.0 0.00 0.00 0.00 76 1015.6
20260902125236 56 14 0.0 0.0 0.00 0.00 0.00 75 1015.6
20260902124732 56 279 0.0 0.0 0.00 0.00 0.00 75 1015.5
20260902124227 56 296 0.0 0.0 0.00 0.00 0.00 74 1015.5
20260902123717 57 259 0.0 1.0 0.00 0.00 0.00 74 1015.5
20260902123213 57 319 0.0 0.0 0.00 0.00 0.00 73 1015.4
20260902122712 57 304 0.0 1.0 0.00 0.00 0.00 73 1015.5
20260902122207 57 271 1.0 1.0 0.00 0.00 0.00 72 1015.4